CAPE
1065 1020 1250 1277 799 738 813 990 1132 1145 1485 1254 1208 1267 1271 1292 1801 1859 1842 1901 2113 2335 2743 3082 2887 2668 2737 3348 3226 3293 3470 3389 3818 3843 3481 3425 3180 2827 2927 3077 3068 2631
1294 1305 1832 1258 1002 1365 1118 1035 1384 1431 1739 1457 1462 1475 1436 1643 1885 2065 2074 2057 2366 2353 2584 2890 2833 2626 3006 3716 3275 3379 3519 3548 3399 3940 3514 3404 3252 2842 2872 2830 2774 2702
1325 1364 1629 1583 1310 1508 1340 1317 1622 1626 1929 1662 1805 1773 1698 2010 1945 2150 2249 2299 2328 2504 2445 2602 2744 2716 2971 3559 3502 3455 3425 3539 3510 3520 3801 3589 3359 3191 3111 3040 2881 2612
1369 1301 1425 1521 1424 1643 1533 1532 1786 1728 1915 1853 1896 2091 1972 2000 2080 2168 2304 2863 2434 2577 2465 2522 2737 2604 2668 3374 3394 3321 3252 3187 3288 3311 3282 3280 3265 3143 2960 2839 2719 2606
1263 1222 1284 1375 1430 1580 1658 1555 1682 1770 1837 1946 1881 1915 2074 2040 2052 2165 2278 2311 2249 2569 2520 2595 2687 2559 2389 2822 3299 3161 3169 2967 2825 2833 2868 2843 2939 3043 2983 2989 3089 3109
1147 1121 1179 1262 1394 1396 1561 1585 1610 1663 1642 1587 1755 1889 1917 1973 1934 1938 2016 2026 2046 2355 2515 2546 2613 2640 2505 2467 3022 3037 3001 3037 2778 2719 2648 2694 2930 3267 3478 3455 3300 3050
1213 1221 1185 1249 1298 1336 1361 1314 1409 1412 1351 1231 1294 1670 1872 1851 1782 1743 1779 1818 1890 2056 2358 2499 2514 2624 2622 2518 2779 2894 2808 2888 2944 2847 2815 2806 2853 2958 3073 3074 2915 2727
1396 1343 1342 1346 1231 1099 1185 1233 1256 1232 1249 1308 1333 1566 1720 1718 1676 1504 1546 1759 1882 1883 2013 2296 2439 2442 2530 2530 2733 2785 2756 2699 2853 2952 2834 2809 2852 2800 2708 2580 2622 2664
1511 1437 1477 1415 1246 1106 970 1031 1188 1267 1269 1282 1268 1210 1319 1515 1562 1518 1484 1752 1903 1872 1870 2042 2264 2348 2407 2454 2490 2718 2728 2657 2546 2654 2739 2782 2772 2776 2680 2511 2469 2515
1507 1460 1463 1430 1218 1228 1216 1055 1009 1070 1083 1002 888 874 1039 1226 1396 1434 1338 1458 1646 1776 1737 1768 2012 2170 2232 2288 2319 2571 2683 2618 2488 2399 2545 2682 2761 2798 2781 2728 2652 2568
1533 1466 1460 1430 1286 1183 1213 1195 1049 876 845 785 766 691 900 1058 1134 1168 1252 1309 1344 1423 1586 1649 1710 1900 2024 2048 2102 2276 2497 2501 2437 2333 2332 2484 2566 2590 3145 2758 2713 2696
1665 1520 1454 1430 1369 1259 1178 1127 1070 898 176 420 301 578 339 776 989 1013 1086 1220 1263 1286 1326 1418 1495 1522 1608 1799 1866 1918 2173 2300 2268 2190 2103 2395 2706 2740 2753 3030 2899 2762
1654 1595 1399 1363 1344 1305 1216 1108 1008 945 798 216 375 220 290 536 557 814 947 1072 1162 1168 1177 1178 1185 1238 1282 1254 1343 1388 1609 2010 2097 2065 1983 2110 2599 2875 2864 2826 2916 2868
1312 1435 1410 1273 1243 1228 1191 1104 950 754 466 71 243 191 168 450 497 450 784 901 998 1054 1090 1095 1085 1086 1093 1081 1072 1077 1151 1560 1809 1862 1846 1757 1956 2379 2623 2686 2688 2712
1026 1081 1208 1205 1174 1106 1036 922 776 600 290 148 201 223 184 265 402 397 631 738 777 928 981 992 992 948 836 810 735 964 972 1212 1474 1626 1678 1670 1684 1816 2074 2309 2402 2446
1156 1069 1084 1089 945 945 936 915 580 490 230 266 275 203 154 424 484 641 633 429 533 565 697 881 921 943 1422 1422 1228 798 806 963 1336 1533 1648 1672 1712 1747 1806 2066 2279 2314
1340 1172 1107 1285 1262 942 917 960 959 682 355 385 360 316 207 513 742 641 692 513 636 601 559 549 599 849 1946 1479 1200 1570 1138 755 1134 1480 1562 1570 1573 1680 1729 1885 2252 2438
1213 1312 1225 1572 1900 1599 1080 905 940 931 807 691 710 668 668 714 824 817 688 693 637 626 608 617 697 1263 1330 1374 1342 1226 2093 1075 803 1037 1549 1599 1665 1771 1788 1868 2226 2575
1674 1658 1549 1689 2122 2575 2391 1642 954 910 882 791 713 725 692 677 778 840 679 764 765 690 638 716 814 955 1131 1119 1235 1259 1584 2284 802 898 1140 1537 1618 1850 1939 1990 2184 2432
1476 1866 2162 2236 2278 2488 2797 2845 2179 1416 909 767 679 622 607 600 691 765 776 737 759 727 731 799 842 1366 1221 1301 1227 1219 1205 1533 1446 1268 1438 1662 1866 2182 2271 2264 2322 2356
1307 1380 1622 1953 2256 2415 2559 2726 2770 2194 1507 1062 700 627 514 507 703 789 800 786 926 834 798 1003 1185 1364 1265 1324 1371 1377 1412 1360 1591 1839 1829 1850 2002 2201 2299 2251 2268 2406
1602 1530 1627 1716 1826 1969 2190 2475 2612 2640 2252 1716 1167 866 694 477 448 635 751 833 1016 1125 1096 1166 1323 1548 1473 1400 1413 1420 1354 1342 1349 1806 2055 2028 2060 2191 2239 2265 2319 2449
1888 1849 1671 1724 1842 1940 2076 2329 2549 2658 2639 2216 1744 1281 939 1047 936 798 739 827 1129 1264 1267 1293 1379 1574 1611 1525 1509 1537 1484 1418 1371 1275 1830 1989 2039 2108 2316 2466 2544 2541
1593 1633 1681 1774 1946 2025 2096 2239 2484 2647 2737 2642 2070 1638 1319 1021 1172 1190 1034 920 1084 1356 1311 1318 1366 1462 1613 1669 1603 1539 1381 1260 1343 1258 1616 1862 1925 1908 1920 2124 2323 3530
1736 1745 1670 1570 1831 2044 2237 2410 2518 2649 2739 2747 2523 2031 1730 1355 1217 1264 1239 1175 1160 1327 2204 1629 1298 1388 1470 1511 1478 1452 1412 1354 1279 1270 1515 1742 1859 1828 1819 2238 2264 4054
1743 1793 1923 1956 1944 1952 2101 2311 2507 2627 2757 2780 2586 2335 2017 1399 1296 1435 1310 1313 1319 1413 1767 2150 1317 1337 1368 1407 1420 1378 1217 1072 1121 1246 1375 1572 1738 1800 1775 1997 2103 2857
Wind_Speed
12 12 14 15 15 14 14 17 19 18 17 15 14 14 13 13 13 12 12 13 13 14 14 15 15 15 14 14 14 13 13 12 12 11 11 12 12 13 14 16 15 11
14 13 14 15 15 15 14 15 17 16 15 14 14 14 15 15 13 12 13 13 14 13 14 14 14 13 14 15 15 13 13 13 12 13 12 12 13 14 15 15 15 13
13 13 13 13 14 14 12 12 13 14 14 13 14 14 14 15 15 15 14 14 13 13 13 13 13 13 14 16 16 15 14 13 13 14 13 12 13 13 13 13 13 12
12 12 13 13 13 13 12 11 12 13 14 13 13 13 13 14 15 15 15 14 14 13 12 12 12 13 14 15 16 15 15 14 13 13 13 14 13 12 11 10 9 9
11 11 12 13 13 13 13 12 13 14 14 15 15 14 13 14 13 13 13 13 13 13 12 12 12 13 14 15 15 15 16 14 14 13 12 12 12 11 10 8 8 9
9 10 10 10 11 11 12 12 13 13 15 15 15 14 14 13 12 12 12 12 12 12 12 13 13 14 14 14 14 13 14 13 13 13 12 11 11 10 9 7 7 8
5 6 7 7 8 8 10 12 13 14 14 14 15 14 14 13 13 12 11 11 11 12 12 13 13 13 14 14 13 12 12 12 12 12 11 10 9 9 8 8 7 7
3 3 3 5 4 6 7 9 11 11 12 13 13 13 12 12 12 13 12 10 10 11 12 12 12 11 11 11 11 11 10 10 10 10 9 9 8 8 7 7 7 6
2 1 1 2 2 5 5 5 7 8 9 10 11 12 12 10 10 10 11 10 10 11 11 11 10 10 10 10 9 9 8 9 8 9 8 7 7 6 6 6 6 6
2 2 1 2 1 4 4 4 5 6 7 8 8 10 9 10 9 9 10 10 9 9 9 10 9 9 8 8 7 7 8 7 8 8 7 7 6 6 5 5 5 6
3 3 3 3 2 3 3 4 5 5 6 6 7 8 8 8 9 9 8 8 7 8 8 8 8 7 7 7 8 8 7 7 6 7 6 6 5 5 5 5 5 5
6 5 4 4 3 3 3 4 5 6 6 6 7 6 8 8 7 8 8 6 6 6 7 7 8 8 7 7 7 8 7 6 6 6 6 6 6 6 6 6 6 6
8 7 7 6 5 4 4 6 6 6 6 6 6 6 7 8 7 6 7 6 6 6 7 7 8 8 8 7 6 6 6 6 5 6 6 6 6 6 6 6 6 6
11 10 9 8 7 6 5 6 7 7 7 nan 8 7 7 6 6 6 6 7 7 7 7 8 8 9 9 8 7 6 7 7 6 6 6 6 6 6 6 6 5 5
15 14 13 11 10 8 6 5 6 8 9 9 7 7 8 7 6 6 6 6 8 8 8 8 8 8 9 9 8 7 8 7 7 6 6 6 7 6 7 6 6 6
17 18 18 17 14 10 8 7 7 8 7 8 7 6 6 9 9 7 5 5 6 8 8 8 8 9 8 3 5 8 8 8 8 7 8 8 8 8 8 7 6 6
18 17 18 18 18 16 11 8 8 8 8 7 7 7 6 8 9 7 6 6 5 6 6 7 8 9 6 4 2 2 6 7 8 8 8 7 7 7 7 7 8 7
18 18 18 18 19 18 16 12 9 9 10 9 8 7 8 7 8 6 6 6 6 5 5 6 7 5 5 5 4 2 3 8 9 10 10 9 8 7 7 8 9 9
19 19 18 19 19 19 19 17 13 10 10 11 9 9 9 8 7 7 6 6 6 5 5 5 7 4 4 5 5 5 4 7 11 10 9 9 8 8 9 9 11 12
21 20 20 20 21 21 22 21 18 13 11 13 14 13 10 8 8 7 8 8 7 7 7 8 8 6 6 6 7 7 5 7 12 11 10 10 9 10 11 11 13 14
24 23 22 23 25 24 23 21 20 19 17 16 16 15 13 11 11 11 12 12 10 10 10 9 10 8 7 8 8 8 7 9 12 13 12 12 12 13 13 14 14 14
26 25 25 25 25 25 24 21 20 20 20 20 21 20 19 18 17 16 15 15 15 14 14 13 13 11 9 9 9 9 11 15 15 15 15 14 14 15 16 16 16 17
27 26 24 23 24 23 22 21 21 21 21 23 23 23 23 22 20 18 18 18 19 19 17 17 17 15 12 12 13 16 24 17 15 15 16 16 17 18 18 18 19 19
23 25 25 24 23 21 20 21 22 25 24 27 27 26 24 23 24 23 22 21 20 20 19 19 19 17 14 13 14 18 20 15 15 17 17 18 19 20 20 20 20 21
21 23 24 23 22 22 22 22 24 26 32 34 31 29 26 27 26 26 26 26 24 22 20 20 21 20 18 16 16 18 20 21 22 21 20 20 23 23 23 23 22 21
24 23 23 24 23 25 26 25 26 32 30 26 20 20 23 26 29 29 29 29 28 27 25 24 25 26 24 20 19 21 21 25 26 26 23 23 25 27 25 24 23 24
Wind_Direction
121 123 128 130 133 136 137 137 138 144 146 151 153 159 169 173 187 192 184 186 188 187 190 196 199 200 198 195 197 200 201 200 198 198 199 201 193 194 193 194 200 208
116 118 127 134 134 139 141 138 140 145 148 153 159 169 173 182 186 193 191 189 190 192 195 199 200 202 202 200 201 205 203 202 196 199 198 195 194 197 193 194 193 193
124 124 126 136 138 140 138 142 149 151 156 160 169 175 178 182 185 189 191 191 193 196 198 197 201 206 207 205 206 207 209 205 200 196 203 197 197 197 193 194 189 178
122 121 128 138 144 145 151 159 167 163 167 171 173 178 181 182 188 188 186 188 196 198 198 200 202 205 207 208 208 206 206 204 200 202 199 201 200 199 190 190 179 168
111 117 127 135 141 147 159 166 170 169 167 170 173 182 186 189 191 190 189 189 197 198 200 200 201 202 205 206 207 204 203 200 197 201 200 196 195 198 186 183 169 161
111 121 130 134 138 144 153 161 165 169 166 166 166 179 189 192 195 193 194 194 197 200 202 199 200 199 203 204 205 202 202 201 199 205 202 197 189 190 182 179 175 167
94 112 121 141 143 150 158 161 165 166 166 161 167 172 186 193 195 195 196 194 197 198 200 199 198 198 200 204 204 201 200 201 200 205 202 193 191 180 181 182 178 177
99 117 134 160 162 163 169 172 169 166 165 167 169 171 180 187 195 202 202 202 200 199 199 201 200 198 197 203 203 203 200 201 200 203 200 187 192 181 176 181 187 186
157 156 175 173 201 196 180 183 178 171 172 173 172 178 181 184 187 198 209 211 209 206 205 203 204 198 198 202 201 206 207 202 203 209 203 192 188 179 181 190 185 190
212 220 236 237 250 221 210 199 200 187 186 186 181 186 192 189 192 195 205 211 215 215 215 213 210 206 203 203 203 209 212 209 205 208 208 203 193 186 185 195 189 190
219 245 250 252 256 239 230 221 216 207 200 193 197 196 201 200 194 199 202 208 210 213 216 216 217 218 216 209 207 210 216 216 209 208 208 206 200 189 188 201 202 201
212 231 252 258 259 254 250 238 229 229 221 203 206 203 209 211 205 201 204 206 204 208 210 205 210 220 223 221 215 212 213 212 208 210 213 213 209 206 205 211 211 204
226 228 238 246 252 247 243 243 238 239 241 230 219 212 213 220 211 207 205 210 205 207 203 198 201 210 216 221 220 220 221 216 208 215 220 223 220 220 218 217 216 210
233 233 236 242 245 242 238 241 240 240 240 nan 228 224 216 222 224 213 208 211 213 210 206 204 205 210 215 214 214 221 231 228 225 223 223 220 219 220 221 221 222 219
240 240 237 238 242 248 247 243 244 239 239 234 226 219 221 228 229 228 215 205 211 213 210 210 209 211 215 219 219 221 226 231 233 227 222 219 214 210 211 211 208 208
234 237 243 243 245 244 245 252 251 246 241 242 238 230 220 226 227 226 219 204 203 209 214 216 216 216 222 269 247 228 228 224 226 223 219 215 208 200 199 200 199 209
233 233 238 242 242 243 241 239 251 254 247 243 244 243 240 232 231 224 215 205 200 203 204 206 213 218 269 291 309 308 233 224 228 223 218 213 207 202 193 197 207 222
237 233 234 236 239 240 239 237 238 243 248 248 247 243 237 234 235 232 218 210 201 198 199 201 204 209 284 286 292 304 244 224 221 222 221 222 222 222 213 214 227 239
229 232 233 231 231 234 236 234 233 234 240 243 248 246 240 233 229 232 229 220 214 210 210 215 216 222 267 277 277 279 278 246 227 227 228 227 232 232 229 229 237 247
218 222 224 225 227 229 231 232 230 230 234 239 237 238 243 235 225 227 226 225 222 222 224 230 234 245 274 272 267 274 272 246 233 240 241 243 246 248 246 246 250 256
218 219 220 220 223 226 230 229 228 224 227 234 238 237 236 236 227 217 215 218 218 222 224 231 236 270 281 282 269 264 262 253 238 245 250 252 256 258 259 258 259 264
228 224 221 222 226 229 227 226 226 226 225 230 233 230 227 229 226 223 220 218 217 219 220 223 230 263 277 282 280 276 267 239 238 246 252 255 257 258 259 262 266 271
230 231 231 230 230 229 229 227 227 226 224 226 230 232 230 229 232 232 228 228 227 224 225 223 224 241 264 274 275 272 257 244 238 242 250 257 261 262 264 268 270 273
237 234 231 231 233 231 230 229 228 229 228 226 224 226 232 231 230 232 233 235 237 235 237 236 231 239 259 261 266 270 272 258 251 250 250 256 259 261 266 270 277 295
236 235 234 233 230 228 231 233 233 234 236 237 234 232 230 228 232 236 236 235 237 239 244 246 242 244 261 264 263 265 263 252 253 251 250 252 257 260 259 266 270 282
230 231 232 233 231 230 233 235 236 237 239 244 245 242 246 250 242 237 243 240 238 240 238 242 243 242 248 259 259 259 263 253 252 254 255 257 257 261 262 258 265 270